| time (UTC) | temp C | wind direction | speed KPH | gust KPH | rain 1hr cm | rain 24hr cm | rain mn cm | humidity % | barometer mb |
| 20260906181556 | 37 | 107 | 1.6 | 9.7 | 0.00 | 0.00 | 0.00 | 41 | 1015.4 |
| 20260906180111 | 38 | 37 | 1.6 | 11.3 | 0.00 | 0.00 | 0.00 | 40 | 1015.5 |
| 20260906174552 | 37 | 130 | 6.4 | 9.7 | 0.00 | 0.00 | 0.00 | 40 | 1015.9 |
| 20260906173049 | 37 | 181 | 3.2 | 8.0 | 0.00 | 0.00 | 0.00 | 40 | 1016.3 |
| 20260906171559 | 37 | 143 | 6.4 | 14.5 | 0.00 | 0.00 | 0.00 | 40 | 1016.5 |
| 20260906170119 | 37 | 92 | 3.2 | 9.7 | 0.00 | 0.00 | 0.00 | 42 | 1016.7 |
| 20260906164552 | 36 | 30 | 1.6 | 8.0 | 0.00 | 0.00 | 0.00 | 44 | 1016.8 |
| 20260906163123 | 36 | 130 | 3.2 | 9.7 | 0.00 | 0.00 | 0.00 | 44 | 1017.1 |
| 20260906163050 | 36 | 130 | 3.2 | 9.7 | 0.00 | 0.00 | 0.00 | 44 | 1017.1 |
| 20260906161545 | 36 | 27 | 1.6 | 6.4 | 0.00 | 0.00 | 0.00 | 47 | 1017.1 |
| 20260906160055 | 35 | 124 | 0.0 | 3.2 | 0.00 | 0.00 | 0.00 | 49 | 1017.4 |
| 20260906154551 | 35 | 0 | 1.6 | 4.8 | 0.00 | 0.00 | 0.00 | 50 | 1017.3 |
| 20260906153045 | 34 | 147 | 1.6 | 4.8 | 0.00 | 0.00 | 0.00 | 52 | 1017.1 |
| 20260906151609 | 33 | 219 | 1.6 | 4.8 | 0.00 | 0.00 | 0.00 | 53 | 1017.0 |
| 20260906150059 | 33 | 0 | 0.0 | 3.2 | 0.00 | 0.00 | 0.00 | 57 | 1017.2 |
| 20260906144600 | 32 | 236 | 0.0 | 3.2 | 0.00 | 0.00 | 0.00 | 60 | 1017.1 |
| 20260906143105 | 30 | 229 | 1.6 | 4.8 | 0.00 | 0.00 | 0.00 | 63 | 1017.1 |
| 20260906141556 | 30 | 214 | 0.0 | 6.4 | 0.00 | 0.00 | 0.00 | 66 | 1017.0 |
| 20260906140055 | 28 | 207 | 1.6 | 4.8 | 0.00 | 0.00 | 0.00 | 67 | 1017.2 |
| 20260906134558 | 28 | 250 | 0.0 | 3.2 | 0.00 | 0.00 | 0.00 | 68 | 1017.0 |
| 20260906133102 | 27 | 162 | 1.6 | 3.2 | 0.00 | 0.00 | 0.00 | 72 | 1016.8 |
| 20260906131557 | 25 | 144 | 0.0 | 3.2 | 0.00 | 0.00 | 0.00 | 76 | 1016.7 |
| 20260906130053 | 23 | 117 | 0.0 | 1.6 | 0.00 | 0.00 | 0.00 | 81 | 1016.4 |
| 20260906124559 | 22 | 0 | 0.0 | 0.0 | 0.00 | 0.00 | 0.00 | 85 | 1016.2 |
| 20260906123135 | 22 | 0 | 0.0 | 0.0 | 0.00 | 0.00 | 0.00 | 86 | 1016.0 |
| 20260906121554 | 21 | 0 | 0.0 | 0.0 | 0.00 | 0.00 | 0.00 | 85 | 1015.9 |
| 20260906120052 | 22 | 0 | 0.0 | 0.0 | 0.00 | 0.00 | 0.00 | 84 | 1015.9 |
| 20260906114636 | 22 | 0 | 0.0 | 0.0 | 0.00 | 0.00 | 0.00 | 82 | 1015.8 |
| 20260906113057 | 22 | 0 | 0.0 | 0.0 | 0.00 | 0.00 | 0.00 | 83 | 1015.7 |
| 20260906111554 | 22 | 0 | 0.0 | 1.6 | 0.00 | 0.00 | 0.00 | 81 | 1015.6 |
| 20260906110052 | 22 | 0 | 0.0 | 1.6 | 0.00 | 0.00 | 0.00 | 81 | 1015.5 |
| 20260906104557 | 23 | 130 | 0.0 | 0.0 | 0.00 | 0.00 | 0.00 | 80 | 1015.6 |
| 20260906103049 | 23 | 0 | 0.0 | 3.2 | 0.00 | 0.00 | 0.00 | 78 | 1015.4 |
| 20260906101553 | 23 | 0 | 0.0 | 1.6 | 0.00 | 0.00 | 0.00 | 80 | 1015.3 |
| 20260906100051 | 23 | 0 | 0.0 | 1.6 | 0.00 | 0.00 | 0.00 | 80 | 1015.2 |
| 20260906094606 | 23 | 110 | 0.0 | 1.6 | 0.00 | 0.00 | 0.00 | 80 | 1015.2 |
| 20260906093048 | 23 | 0 | 0.0 | 1.6 | 0.00 | 0.00 | 0.00 | 78 | 1015.2 |
| 20260906091558 | 24 | 0 | 0.0 | 0.0 | 0.00 | 0.00 | 0.00 | 76 | 1015.2 |
| 20260906090052 | 25 | 0 | 0.0 | 1.6 | 0.00 | 0.00 | 0.00 | 75 | 1015.2 |
| 20260906084559 | 25 | 92 | 0.0 | 4.8 | 0.00 | 0.00 | 0.00 | 74 | 1015.0 |
| 20260906083044 | 25 | 81 | 1.6 | 6.4 | 0.00 | 0.00 | 0.00 | 75 | 1014.8 |
| 20260906081636 | 24 | 121 | 0.0 | 1.6 | 0.00 | 0.00 | 0.00 | 76 | 1014.9 |
| 20260906080253 | 24 | 120 | 0.0 | 3.2 | 0.00 | 0.00 | 0.00 | 76 | 1014.8 |
| 20260906074556 | 24 | 129 | 1.6 | 4.8 | 0.00 | 0.00 | 0.00 | 78 | 1014.8 |
| 20260906073057 | 23 | 148 | 0.0 | 0.0 | 0.00 | 0.00 | 0.00 | 79 | 1015.2 |
| 20260906071555 | 23 | 148 | 0.0 | 1.6 | 0.00 | 0.00 | 0.00 | 78 | 1015.1 |
| 20260906070054 | 23 | 97 | 0.0 | 3.2 | 0.00 | 0.00 | 0.00 | 79 | 1015.1 |
| 20260906064558 | 23 | 0 | 0.0 | 3.2 | 0.00 | 0.00 | 0.00 | 80 | 1015.1 |
| 20260906063100 | 23 | 0 | 0.0 | 0.0 | 0.00 | 0.00 | 0.00 | 79 | 1015.1 |
| 20260906061555 | 24 | 0 | 0.0 | 0.0 | 0.00 | 0.00 | 0.00 | 78 | 1015.0 |
| 20260906060054 | 25 | 0 | 0.0 | 0.0 | 0.00 | 0.00 | 0.00 | 77 | 1015.1 |
| 20260906054548 | 25 | 0 | 0.0 | 0.0 | 0.00 | 0.00 | 0.00 | 76 | 1015.1 |
| 20260906053100 | 25 | 0 | 0.0 | 1.6 | 0.00 | 0.00 | 0.00 | 77 | 1015.2 |
| 20260906051600 | 25 | 0 | 0.0 | 1.6 | 0.00 | 0.00 | 0.00 | 77 | 1015.2 |
| 20260906050056 | 25 | 91 | 0.0 | 1.6 | 0.00 | 0.00 | 0.00 | 77 | 1015.2 |
| 20260906044558 | 25 | 0 | 0.0 | 0.0 | 0.00 | 0.00 | 0.00 | 75 | 1015.1 |
| 20260906043101 | 25 | 0 | 0.0 | 3.2 | 0.00 | 0.00 | 0.00 | 76 | 1015.3 |
| 20260906041559 | 26 | 144 | 0.0 | 0.0 | 0.00 | 0.00 | 0.00 | 75 | 1015.3 |
| 20260906040052 | 26 | 0 | 0.0 | 0.0 | 0.00 | 0.00 | 0.00 | 73 | 1015.3 |
| 20260906034603 | 26 | 0 | 0.0 | 1.6 | 0.00 | 0.00 | 0.00 | 73 | 1015.2 |
| 20260906033110 | 26 | 0 | 1.6 | 3.2 | 0.00 | 0.00 | 0.00 | 74 | 1015.0 |
| 20260906031603 | 26 | 0 | 0.0 | 0.0 | 0.00 | 0.00 | 0.00 | 73 | 1014.9 |
| 20260906030050 | 26 | 0 | 0.0 | 0.0 | 0.00 | 0.00 | 0.00 | 72 | 1014.8 |
| 20260906024557 | 26 | 0 | 0.0 | 0.0 | 0.00 | 0.00 | 0.00 | 71 | 1014.5 |
| 20260906023056 | 27 | 0 | 0.0 | 0.0 | 0.00 | 0.00 | 0.00 | 70 | 1014.4 |
| 20260906021602 | 27 | 0 | 0.0 | 0.0 | 0.00 | 0.00 | 0.00 | 69 | 1014.2 |
| 20260906020106 | 27 | 0 | 0.0 | 0.0 | 0.00 | 0.00 | 0.00 | 68 | 1014.1 |
| 20260906014554 | 28 | 0 | 0.0 | 0.0 | 0.00 | 0.00 | 0.00 | 67 | 1013.9 |
| 20260906013058 | 29 | 0 | 0.0 | 0.0 | 0.00 | 0.00 | 0.00 | 65 | 1013.7 |
| 20260906011559 | 30 | 0 | 0.0 | 0.0 | 0.00 | 0.00 | 0.00 | 62 | 1013.5 |
| 20260906010100 | 31 | 0 | 0.0 | 0.0 | 0.00 | 0.00 | 0.00 | 59 | 1013.6 |
| 20260906004602 | 32 | 0 | 0.0 | 0.0 | 0.00 | 0.00 | 0.00 | 55 | 1013.4 |
| 20260906003049 | 33 | 0 | 0.0 | 1.6 | 0.00 | 0.00 | 0.00 | 53 | 1013.4 |
| 20260906001551 | 34 | 0 | 0.0 | 0.0 | 0.00 | 0.00 | 0.00 | 50 | 1013.5 |
| 20260906000059 | 35 | 0 | 0.0 | 1.6 | 0.00 | 0.00 | 0.00 | 49 | 1013.5 |
| 20260905234552 | 36 | 0 | 0.0 | 1.6 | 0.00 | 0.00 | 0.00 | 45 | 1013.4 |
| 20260905233100 | 36 | 0 | 0.0 | 1.6 | 0.00 | 0.00 | 0.00 | 41 | 1013.4 |
| 20260905231556 | 36 | 0 | 0.0 | 6.4 | 0.00 | 0.00 | 0.00 | 42 | 1013.4 |
| 20260905230058 | 37 | 37 | 0.0 | 3.2 | 0.00 | 0.00 | 0.00 | 41 | 1013.3 |
| 20260905224552 | 37 | 44 | 1.6 | 8.0 | 0.00 | 0.00 | 0.00 | 40 | 1013.3 |
| 20260905223056 | 37 | 94 | 3.2 | 9.7 | 0.00 | 0.00 | 0.00 | 39 | 1013.5 |
| 20260905221554 | 38 | 29 | 1.6 | 9.7 | 0.00 | 0.00 | 0.00 | 39 | 1013.5 |
| 20260905220050 | 38 | 93 | 4.8 | 8.0 | 0.00 | 0.00 | 0.00 | 39 | 1013.5 |
| 20260905214600 | 38 | 0 | 1.6 | 9.7 | 0.00 | 0.00 | 0.00 | 40 | 1013.7 |
| 20260905213057 | 38 | 341 | 4.8 | 9.7 | 0.00 | 0.00 | 0.00 | 39 | 1013.8 |
| 20260905211621 | 38 | 134 | 3.2 | 6.4 | 0.00 | 0.00 | 0.00 | 38 | 1014.1 |
| 20260905210123 | 38 | 101 | 3.2 | 11.3 | 0.00 | 0.00 | 0.00 | 39 | 1014.3 |
| 20260905204602 | 38 | 33 | 3.2 | 16.1 | 0.00 | 0.00 | 0.00 | 41 | 1014.5 |
| 20260905203055 | 38 | 91 | 3.2 | 6.4 | 0.00 | 0.00 | 0.00 | 40 | 1014.8 |
| 20260905201555 | 37 | 58 | 3.2 | 14.5 | 0.00 | 0.00 | 0.00 | 41 | 1015.1 |
| 20260905194608 | 36 | 354 | 3.2 | 9.7 | 0.00 | 0.00 | 0.00 | 45 | 1015.5 |
| 20260905193053 | 36 | 49 | 3.2 | 8.0 | 0.00 | 0.00 | 0.00 | 46 | 1015.7 |
| 20260905191557 | 36 | 319 | 1.6 | 6.4 | 0.00 | 0.00 | 0.00 | 46 | 1015.9 |
| 20260905190050 | 37 | 38 | 1.6 | 11.3 | 0.00 | 0.00 | 0.00 | 45 | 1016.0 |
| 20260905184617 | 36 | 328 | 3.2 | 12.9 | 0.00 | 0.00 | 0.00 | 46 | 1016.3 |
| 20260905183058 | 37 | 313 | 0.0 | 9.7 | 0.00 | 0.00 | 0.00 | 44 | 1016.5 |